Location: Beaurecueil
(43.5122°N, 5.5450°E)
Time: 14:37:46
(UTC+00:00)

Meteor 2-5 Rocket - Pass Details

Date: 18 September 2020
Orbit: 833 x 912 km, 81.2° (Epoch: 30 October)

Event Time Altitude Azimuth Distance (km) Brightness Sun altitude
Rises 20:22:10 0° 347° (NNW) 3,417 7.5 -28.3°
Reaches altitude 10° 20:24:35 10° 346° (NNW) 2,487 6.7 -28.6°
Maximum altitude 20:30:12 71° 263° (W) 910 3.8 -29.5°
Enters shadow 20:30:20 71° 251° (WSW) 912 3.8 -29.5°
